Location: Columbia
(38.9520°N, 92.3340°W)
Time: 21:59:30
(UTC-06:00)

Iridium 15 - Visible Passes

Search period start: 07 February 2016 00:00
Search period end: 17 February 2016 00:00
Orbit: 776 x 779 km, 86.4° (Epoch: 07 February)

Date Brightness Start Highest point End Pass type
(mag) Time Alt. Az. Time Alt. Az. Time Alt. Az.
07 Feb 9.1 05:04:38 10° ESE 05:07:25 15° ENE 05:10:12 10° NE visible
07 Feb 8.4 18:54:51 10° NNW 18:59:03 25° W 19:03:16 10° SW visible
08 Feb 6.3 06:08:50 10° S 06:14:00 74° E 06:19:13 10° N visible
08 Feb 7.2 18:20:45 10° NNW 18:25:44 47° W 18:30:42 10° SSW visible
09 Feb 7.5 05:35:48 10° SSE 05:40:36 39° E 05:45:25 10° NNE visible
10 Feb 8.6 05:03:28 10° SE 05:07:18 21° E 05:11:10 10° NNE visible
10 Feb 8.9 18:55:36 10° NW 18:58:58 18° W 19:02:21 10° WSW visible
11 Feb 9.3 04:32:40 10° E 04:34:09 11° ENE 04:35:37 10° ENE visible
11 Feb 6.0 06:08:54 10° S 06:14:06 76° W 06:19:20 10° N visible
11 Feb 8.1 18:21:08 10° NNW 18:25:44 32° W 18:30:18 10° SW visible
12 Feb 6.7 05:35:32 10° SSE 05:40:37 58° E 05:45:44 10° N visible
13 Feb 7.9 05:02:44 10° SE 05:07:15 31° E 05:11:47 10° NNE visible
13 Feb 9.3 18:57:01 10° NW 18:58:51 12° WNW 19:00:41 10° W visible
14 Feb 8.8 04:30:48 10° ESE 04:34:00 17° E 04:37:14 10° NE visible
14 Feb 6.2 06:09:11 10° SSW 06:14:14 51° W 06:19:20 10° N visible
14 Feb 8.8 18:21:42 10° NNW 18:25:41 22° W 18:29:38 10° SW visible
15 Feb 6.1 05:35:28 10° S 05:40:41 84° E 05:45:55 10° N visible
16 Feb 7.1 05:02:19 10° SSE 05:07:15 45° E 05:12:11 10° NNE visible
